Location: Kaseke
(18.0171°S, 31.0526°E)
Time: 12:24:25
(UTC+00:00)

BREEZE-M DEB (TANK) - Pass Details

Date: 14 July 2020
Orbit: 323 x 13099 km, 49.7° (Epoch: 07 August)

Event Time Altitude Azimuth Distance (km) Brightness Sun altitude
Exits shadow 02:37:22 54° 257° (WSW) 1,309 4.2 -25.6°
Maximum altitude 02:38:43 69° 314° (NW) 1,367 4.5 -25.3°
Drops below altitude 10° 02:55:54 10° 33° (NNE) 7,526 9.2 -21.4°
Sets 03:06:36 0° 34° (NE) 10,825 10.2 -18.9°
